Regional Weather Roundup
Issued by NWS Cleveland, OH

Home | Current Version | Previous Version | Graphics & Text | Print | Product List | Glossary On
Versions: 1 2 3 4 5 6 7 8 9 10 11 12 13 14 15 16 17 18 19 20 21 22 23 24 25 26 27 28 29 30 31 32 33 34 35 36 37 38 39 40 41 42 43 44 45 46 47 48 49 50
000
ASUS41 KCLE 112002
RWRCLE
OHIO REGIONAL WEATHER ROUNDUP
NATIONAL WEATHER SERVICE CLEVELAND, OH
400 PM EDT FRI JUL 11 2014

NOTE: "FAIR" INDICATES FEW OR NO CLOUDS BELOW 12,000 FEET WITH NO
SIGNIFICANT WEATHER AND/OR OBSTRUCTIONS TO VISIBILITY.

OHZ001>008-015>018-024>027-034-035-043-044-112100-
   NORTHWEST OHIO

CITY           SKY/WX    TMP DP  RH WIND       PRES   REMARKS
DEFIANCE       MOSUNNY   80  55  42 SE6       30.19F
FINDLAY        MOSUNNY   80  55  42 CALM      30.19F
TOLEDO EXPRESS PTSUNNY   81  56  42 SE6       30.19F
TOLEDO EXEC    MOSUNNY   80  57  45 S8        30.20F
LIMA           PTSUNNY   81  57  43 MISG      30.20F
$$

OHZ009>014-019>023-028>033-038-089-112100-
   NORTHEAST OHIO

CITY           SKY/WX    TMP DP  RH WIND       PRES   REMARKS
CLE-HOPKINS    MOSUNNY   77  56  48 N9        30.22S
CLE-LAKEFRONT  SUNNY     76  61  59 N12       30.19S
CUY CO. ARPT   PTSUNNY   79  57  47 N13       30.21S
LORAIN-ELYRIA  MOSUNNY   83  57  41 E7        30.21S
ASHTABULA      SUNNY     78  59  51 NW6       30.21F
AKRON-CANTON   MOSUNNY   84  57  39 E6        30.20F
WOOSTER        SUNNY     80  56  43 SW5       30.21S
MANSFIELD      MOSUNNY   81  55  40 W5        30.22S
YOUNGSTOWN     PTSUNNY   82  57  42 N3        30.20F
$$

OHZ042-051>053-060>062-070>072-077>081-112100-
  SOUTHWEST OHIO

CITY           SKY/WX    TMP DP  RH WIND       PRES   REMARKS
CINC-COVINGTON MOSUNNY   85  56  37 SW9       30.18F
CINC-LUNKEN    SUNNY     86  57  37 VRB3      30.17F
HAMILTON       MOSUNNY   86  58  38 N6        30.19F
DAYTON         PTSUNNY   83  58  42 VRB3      30.21F
WRIGHT-PAT AFB NOT AVBL
DAYTON GENERAL MOSUNNY   81  57  43 CALM      30.19F
WILMINGTON     MOSUNNY   82  56  40 W3        30.21S
$$

OHZ036-037-039>041-045>050-054>059-063>069-073>076-082>088-112100-
  CENTRAL AND SOUTHEAST OHIO

CITY           SKY/WX    TMP DP  RH WIND       PRES   REMARKS
COLUMBUS       MOSUNNY   84  54  35 E7        30.19S
OSU AIRPORT    MOSUNNY   83  54  36 VRB5      30.19F
BOLTON FIELD   SUNNY     82  57  42 CALM      30.21S
RICKENBACK AFB SUNNY     85  44  23 CALM      30.20S
NEWARK         PTSUNNY   81  54  39 CALM      30.20S
MARION         MOSUNNY   81  56  42 MISG      30.21S
LANCASTER      MOSUNNY   84  57  39 CALM      30.20F
ZANESVILLE     MOSUNNY   81  32  17 MISG      30.20F
NEW PHILLY     SUNNY     83  60  45 SW5       30.19F
$$


USA.gov is the U.S. government's official web portal to all federal, state and local government web resources and services.